This is the latest recevied weather packets stored in our database for station/object KC3ROB-13. If no packets are shown the sender has not sent any weather packets the latest 10 day(s).
| Time | Temp. | Humidity | Pressure | Rain* | Wind** | Luminosity | Snow |
|---|---|---|---|---|---|---|---|
| 1777759248 | 15° C | 100% | 1004.7 hPa | 0 mm | - | - | - |
| 1777758648 | 15° C | 100% | 1004.7 hPa | 0 mm | - | - | - |
| 1777758048 | 15° C | 100% | 1004.4 hPa | 0 mm | - | - | - |
| 1777757448 | 15.56° C | 100% | 1004.4 hPa | 0 mm | - | - | - |
| 1777756852 | 16.11° C | 100% | 1004.4 hPa | 0 mm | - | - | - |
| 1777756252 | 15° C | 100% | 1004.4 hPa | 0 mm | - | - | - |
| 1777755652 | 15.56° C | 100% | 1004.1 hPa | 0 mm | - | - | - |
| 1777755052 | 15.56° C | 100% | 1004.1 hPa | 0 mm | - | - | - |
| 1777754452 | 15.56° C | 100% | 1004.1 hPa | 0 mm | - | - | - |
| 1777753852 | 16.11° C | 100% | 1004.1 hPa | 0 mm | - | - | - |
| 1777753252 | 16.11° C | 100% | 1004.1 hPa | 0 mm | - | - | - |
| 1777752652 | 15.56° C | 100% | 1004.4 hPa | 0 mm | - | - | - |
| 1777752053 | 16.11° C | 100% | 1004.4 hPa | 0 mm | - | - | - |
| 1777751452 | 16.11° C | 100% | 1004.7 hPa | 0 mm | - | - | - |
| 1777750851 | 16.67° C | 100% | 1004.7 hPa | 0 mm | - | - | - |
| 1777750252 | 16.67° C | 100% | 1005.1 hPa | 0 mm | - | - | - |
| 1777749652 | 16.11° C | 100% | 1005.1 hPa | 0 mm | - | - | - |
| 1777749052 | 15.56° C | 100% | 1005.1 hPa | 0 mm | - | - | - |
| 1777748453 | 16.67° C | 100% | 1005.4 hPa | 0 mm | - | - | - |
| 1777747852 | 15.56° C | 100% | 1005.4 hPa | 0 mm | - | - | - |
| 1777747252 | 15.56° C | 100% | 1005.8 hPa | 0 mm | - | - | - |
| 1777746652 | 15.56° C | 100% | 1005.8 hPa | 0 mm | - | - | - |
| 1777746052 | 15° C | 100% | 1005.8 hPa | 0 mm | - | - | - |
| 1777745452 | 15.56° C | 100% | 1006.1 hPa | 0 mm | - | - | - |
| 1777744853 | 15° C | 100% | 1006.1 hPa | 0 mm | - | - | - |
* Rain latest hour (hover to see other rain measurements)
** Current wind speed in m/s (hover to see current wind gust speed)